Home > Weather > Nieuw Nickerie > Past weeks

Flag for Suriname Past Weather in Nieuw Nickerie, Suriname — Yesterday and Last 2 Weeks

Now
75 °F

Scattered clouds.


Feels Like: 73 °F
Forecast: 80 / 89 °F
Wind: 2 mph from North

Location: Georgetown/Cheddi Jagan International Airport

Current Time: Aug 25, 2016 at 8:48:42 AM

Latest Report: Aug 25, 2016 at 8:00 AM


Visibility: N/A

Pressure: 29.92 "Hg

Humidity: 100%

Dew Point: 75 °F

Location of Nieuw NickerieLocation

Past Weather in Nieuw Nickerie — Graph

°F

Nieuw Nickerie Temperature Yesterday

Maximum temperature yesterday: 90 °F (at 1:00 PM)
Minimum temperature yesterday: 73 °F (at 6:00 AM)
Average temperature yesterday: 79 °F

High & Low Weather Summary for the Past Weeks

 TemperatureHumidityPressure
High109 °F (Aug 22, 7:00 AM)100% (Aug 10, 8:00 AM)30.01 "Hg (Aug 10, 8:00 AM)
Low72 °F (Aug 20, 7:00 AM)34% (Aug 22, 7:00 AM)29.80 "Hg (Aug 12, 5:00 PM)
Average80 °F88%29.90 "Hg
* Reported Aug 10 7:00 AM — Aug 25 7:00 AM, Nieuw Nickerie, Weather by CustomWeather, © 2016

Note: Actual official high and low records may vary slightly from our data, if they occured in-between our weather recording intervals... More about our weather records

Advertising

Nieuw Nickerie Weather History for the Previous 24 Hours

Scroll right to see more
 ConditionsComfort  
Time TempWeatherWind HumidityBarometerVisibility
7:00 AM
Thu, Aug 25
75 °FScattered clouds.2 mph100%29.89 "Hg5 mi
6:00 AM73 °FPassing clouds.No wind100%29.89 "HgN/A
5:00 AM75 °FPassing clouds.No wind100%29.89 "HgN/A
1:00 AM77 °FPassing clouds.No wind94%29.92 "HgN/A
12:00 AM77 °FPassing clouds.No wind94%29.92 "HgN/A
11:00 PM
Wed, Aug 24
77 °FPassing clouds.2 mph100%29.92 "HgN/A
10:00 PM79 °FPassing clouds.2 mph94%29.92 "HgN/A
9:00 PM79 °FPassing clouds.2 mph100%29.89 "HgN/A
8:00 PM79 °FPassing clouds.No wind94%29.86 "HgN/A
7:00 PM81 °FPartly sunny.5 mph94%29.86 "HgN/A
6:00 PM82 °FBroken clouds.2 mph89%29.83 "HgN/A
5:00 PM82 °FBroken clouds.5 mph89%29.83 "HgN/A
4:00 PM81 °FBroken clouds.5 mph84%29.83 "HgN/A
3:00 PM79 °FBroken clouds.6 mph89%29.86 "HgN/A
2:00 PM77 °FThunderstorms. Broken clouds.7 mph94%29.89 "Hg6 mi
1:00 PM90 °FPartly sunny.7 mph63%29.89 "HgN/A
12:00 PM88 °FPartly sunny.7 mph70%29.92 "HgN/A
11:00 AM86 °FPartly sunny.5 mph75%29.95 "HgN/A
10:00 AM81 °FBroken clouds.5 mph89%29.95 "HgN/A
9:00 AM79 °FBroken clouds.5 mph89%29.95 "HgN/A
8:00 AM75 °FPartly sunny.5 mph100%29.92 "HgN/A
Weather by CustomWeather, © 2016

See weather overviewHow to use our weather pages